Time,TemperatureF,DewpointF,PressureIn,WindDirection,WindDirectionDegrees,WindSpeedMPH,WindSpeedGustMPH,Humidity,HourlyPrecipIn,Conditions,Clouds,dailyrainin,SolarRadiationWatts/m^2,SoftwareType,DateUTC
2013-10-02 00:01:00,64.8,60.8,29.91,WSW,248,8.1,8.1,87,0.00,CLR,,0.00,0.0,WeatherDisplay:10.37,2013-10-02 04:01:00,
2013-10-02 00:02:00,64.7,60.7,29.91,SSW,198,10.4,10.4,87,0.00,CLR,,0.00,0.0,WeatherDisplay:10.37,2013-10-02 04:02:00,
2013-10-02 00:07:00,64.6,60.6,29.91,SSW,192,6.9,6.9,87,0.00,CLR,,0.00,0.0,WeatherDisplay:10.37,2013-10-02 04:07:00,
2013-10-02 00:12:00,64.6,60.6,29.91,SW,235,10.4,10.4,87,0.00,CLR,,0.00,0.0,WeatherDisplay:10.37,2013-10-02 04:12:00,
2013-10-02 00:17:00,64.5,60.5,29.91,SW,219,8.1,8.1,87,0.00,CLR,,0.00,0.0,WeatherDisplay:10.37,2013-10-02 04:17:00,
2013-10-02 00:22:00,64.5,60.5,29.91,South,185,12.7,12.7,87,0.00,CLR,,0.00,0.0,WeatherDisplay:10.37,2013-10-02 04:22:00,
2013-10-02 00:27:00,64.4,60.8,29.91,SSW,209,10.4,10.4,88,0.00,CLR,,0.00,0.0,WeatherDisplay:10.37,2013-10-02 04:27:00,
2013-10-02 00:32:00,64.4,60.8,29.91,SW,231,11.5,11.5,88,0.00,CLR,,0.00,0.0,WeatherDisplay:10.37,2013-10-02 04:32:00,
2013-10-02 00:37:00,64.3,60.7,29.91,SSW,200,8.1,8.1,88,0.00,CLR,,0.00,0.0,WeatherDisplay:10.37,2013-10-02 04:37:00,
2013-10-02 00:42:00,64.3,60.7,29.91,SSW,199,8.1,8.1,88,0.00,CLR,,0.00,0.0,WeatherDisplay:10.37,2013-10-02 04:42:00,
2013-10-02 00:47:00,64.3,60.7,29.91,SSW,213,6.9,6.9,88,0.00,CLR,,0.00,0.0,WeatherDisplay:10.37,2013-10-02 04:47:00,
2013-10-02 00:52:00,64.2,60.6,29.91,SW,232,10.4,10.4,88,0.00,CLR,,0.00,0.0,WeatherDisplay:10.37,2013-10-02 04:52:00,
2013-10-02 00:57:00,64.1,60.5,29.91,SSW,207,8.1,8.1,88,0.00,CLR,,0.00,0.0,WeatherDisplay:10.37,2013-10-02 04:57:00,
2013-10-02 01:02:00,64.1,60.8,29.91,WSW,248,8.1,8.1,89,0.00,CLR,,0.00,0.0,WeatherDisplay:10.37,2013-10-02 05:02:00,
2013-10-02 01:07:00,64.1,60.8,29.91,SW,216,8.1,8.1,89,0.00,CLR,,0.00,0.0,WeatherDisplay:10.37,2013-10-02 05:07:00,
2013-10-02 01:12:00,64.1,60.8,29.91,WSW,238,9.2,9.2,89,0.00,CLR,,0.00,0.0,WeatherDisplay:10.37,2013-10-02 05:12:00,
2013-10-02 01:17:00,64.1,60.8,29.91,SW,232,10.4,10.4,89,0.00,CLR,,0.00,0.0,WeatherDisplay:10.37,2013-10-02 05:17:00,
2013-10-02 01:22:00,64.0,60.7,29.91,SW,228,10.0,10.0,89,0.00,CLR,,0.00,0.0,WeatherDisplay:10.37,2013-10-02 05:22:00,
2013-10-02 01:27:00,64.0,60.7,29.91,SSW,209,5.8,5.8,89,0.00,CLR,,0.00,0.0,WeatherDisplay:10.37,2013-10-02 05:27:00,
2013-10-02 01:32:00,64.0,60.7,29.91,WSW,243,9.2,9.2,89,0.00,CLR,,0.00,0.0,WeatherDisplay:10.37,2013-10-02 05:32:00,
2013-10-02 01:37:00,63.9,60.6,29.91,SW,225,8.0,8.0,89,0.00,CLR,,0.00,0.0,WeatherDisplay:10.37,2013-10-02 05:37:00,
2013-10-02 01:42:00,63.9,60.9,29.91,SW,227,11.5,11.5,90,0.00,CLR,,0.00,0.0,WeatherDisplay:10.37,2013-10-02 05:42:00,
2013-10-02 01:47:00,63.9,60.6,29.91,WSW,248,5.8,5.8,89,0.00,CLR,,0.00,0.0,WeatherDisplay:10.37,2013-10-02 05:47:00,
2013-10-02 01:52:00,63.9,60.6,29.91,SW,228,8.1,8.1,89,0.00,CLR,,0.00,0.0,WeatherDisplay:10.37,2013-10-02 05:52:00,
2013-10-02 01:57:00,63.8,60.5,29.91,SSW,196,6.9,6.9,89,0.00,CLR,,0.00,0.0,WeatherDisplay:10.37,2013-10-02 05:57:00,
2013-10-02 02:02:00,63.9,60.9,29.92,SSW,201,10.4,10.4,90,0.00,CLR,,0.00,0.0,WeatherDisplay:10.37,2013-10-02 06:02:00,
2013-10-02 02:07:00,64.0,61.0,29.92,SSW,211,10.4,10.4,90,0.00,CLR,,0.00,0.0,WeatherDisplay:10.37,2013-10-02 06:07:00,
2013-10-02 02:12:00,64.0,61.0,29.92,SW,225,9.2,9.2,90,0.00,CLR,,0.00,0.0,WeatherDisplay:10.37,2013-10-02 06:12:00,
2013-10-02 02:17:00,64.1,61.1,29.92,WSW,238,9.2,9.2,90,0.00,CLR,,0.00,0.0,WeatherDisplay:10.37,2013-10-02 06:17:00,
2013-10-02 02:22:00,64.1,61.1,29.92,WSW,245,13.8,13.8,90,0.00,CLR,,0.00,0.0,WeatherDisplay:10.37,2013-10-02 06:22:00,
2013-10-02 02:27:00,64.1,61.1,29.92,SW,236,9.2,9.2,90,0.00,CLR,,0.00,0.0,WeatherDisplay:10.37,2013-10-02 06:27:00,
2013-10-02 02:32:00,64.1,61.1,29.92,WSW,251,5.8,5.8,90,0.00,CLR,,0.00,0.0,WeatherDisplay:10.37,2013-10-02 06:32:00,
2013-10-02 02:37:00,64.0,61.0,29.92,SW,219,6.0,6.0,90,0.00,CLR,,0.00,0.0,WeatherDisplay:10.37,2013-10-02 06:37:00,
2013-10-02 02:42:00,63.9,60.9,29.92,SSW,213,6.9,6.9,90,0.00,CLR,,0.00,0.0,WeatherDisplay:10.37,2013-10-02 06:42:00,
2013-10-02 02:47:00,63.9,60.9,29.92,SW,236,5.8,5.8,90,0.00,CLR,,0.00,0.0,WeatherDisplay:10.37,2013-10-02 06:47:00,
2013-10-02 02:52:00,63.8,60.8,29.92,SW,235,8.1,8.1,90,0.00,CLR,,0.00,0.0,WeatherDisplay:10.37,2013-10-02 06:52:00,
2013-10-02 02:57:00,63.8,60.8,29.92,SW,234,6.0,6.0,90,0.00,CLR,,0.00,0.0,WeatherDisplay:10.37,2013-10-02 06:57:00,
2013-10-02 03:02:00,63.6,60.6,29.92,West,271,6.9,6.9,90,0.00,CLR,,0.00,0.0,WeatherDisplay:10.37,2013-10-02 07:02:00,
2013-10-02 03:07:00,63.5,60.8,29.92,WSW,248,6.9,6.9,91,0.00,CLR,,0.00,0.0,WeatherDisplay:10.37,2013-10-02 07:07:00,
2013-10-02 03:12:00,63.5,60.8,29.92,WSW,242,5.8,5.8,91,0.00,CLR,,0.00,0.0,WeatherDisplay:10.37,2013-10-02 07:12:00,
2013-10-02 03:17:00,63.4,60.7,29.92,WSW,238,4.6,4.6,91,0.00,CLR,,0.00,0.0,WeatherDisplay:10.37,2013-10-02 07:17:00,
2013-10-02 03:22:00,63.5,60.8,29.93,West,269,4.6,4.6,91,0.00,CLR,,0.00,0.0,WeatherDisplay:10.37,2013-10-02 07:22:00,
2013-10-02 03:27:00,63.5,60.8,29.93,West,259,6.9,6.9,91,0.00,CLR,,0.00,0.0,WeatherDisplay:10.37,2013-10-02 07:27:00,
2013-10-02 03:32:00,63.4,60.7,29.93,SW,227,5.8,5.8,91,0.00,CLR,,0.00,0.0,WeatherDisplay:10.37,2013-10-02 07:32:00,
2013-10-02 03:37:00,63.3,60.6,29.93,WSW,249,4.0,4.0,91,0.00,CLR,,0.00,0.0,WeatherDisplay:10.37,2013-10-02 07:37:00,
2013-10-02 03:42:00,63.2,60.5,29.93,SW,215,4.6,4.6,91,0.00,CLR,,0.00,0.0,WeatherDisplay:10.37,2013-10-02 07:42:00,
2013-10-02 03:47:00,63.1,60.7,29.93,SW,232,4.6,4.6,92,0.00,CLR,,0.00,0.0,WeatherDisplay:10.37,2013-10-02 07:47:00,
2013-10-02 03:52:00,63.0,60.6,29.93,WSW,246,3.5,3.5,92,0.00,CLR,,0.00,0.0,WeatherDisplay:10.37,2013-10-02 07:52:00,
2013-10-02 03:57:00,62.9,60.5,29.94,WSW,239,4.6,4.6,92,0.00,CLR,,0.00,0.0,WeatherDisplay:10.37,2013-10-02 07:57:00,
2013-10-02 04:02:00,62.9,60.5,29.94,WSW,258,3.5,3.5,92,0.00,CLR,,0.00,0.0,WeatherDisplay:10.37,2013-10-02 08:02:00,
2013-10-02 04:07:00,62.8,60.4,29.94,WSW,248,3.5,3.5,92,0.00,CLR,,0.00,0.0,WeatherDisplay:10.37,2013-10-02 08:07:00,
2013-10-02 04:12:00,62.6,60.2,29.94,WSW,252,2.3,2.3,92,0.00,CLR,,0.00,0.0,WeatherDisplay:10.37,2013-10-02 08:12:00,
2013-10-02 04:17:00,62.5,60.1,29.94,WSW,242,3.5,3.5,92,0.00,CLR,,0.00,0.0,WeatherDisplay:10.37,2013-10-02 08:17:00,
2013-10-02 04:22:00,62.4,60.3,29.94,WSW,244,3.5,3.5,93,0.00,CLR,,0.00,0.0,WeatherDisplay:10.37,2013-10-02 08:22:00,
2013-10-02 04:27:00,62.2,60.2,29.94,WSW,244,2.3,2.3,93,0.00,CLR,,0.00,0.0,WeatherDisplay:10.37,2013-10-02 08:27:00,
2013-10-02 04:32:00,62.1,60.1,29.95,WSW,246,3.5,3.5,93,0.00,CLR,,0.00,0.0,WeatherDisplay:10.37,2013-10-02 08:32:00,
2013-10-02 04:37:00,62.0,60.0,29.95,WSW,250,1.2,1.2,93,0.00,CLR,,0.00,0.0,WeatherDisplay:10.37,2013-10-02 08:37:00,
2013-10-02 04:42:00,61.9,60.2,29.95,WSW,249,5.8,5.8,94,0.00,CLR,,0.00,0.0,WeatherDisplay:10.37,2013-10-02 08:42:00,
2013-10-02 04:47:00,61.8,60.1,29.95,West,261,3.5,3.5,94,0.00,CLR,,0.00,0.0,WeatherDisplay:10.37,2013-10-02 08:47:00,
2013-10-02 04:52:00,61.7,60.0,29.95,WSW,254,3.5,3.5,94,0.00,CLR,,0.00,0.0,WeatherDisplay:10.37,2013-10-02 08:52:00,
2013-10-02 04:57:00,61.6,59.9,29.95,WSW,254,3.5,3.5,94,0.00,CLR,,0.00,0.0,WeatherDisplay:10.37,2013-10-02 08:57:00,
2013-10-02 05:02:00,61.5,59.8,29.95,WSW,258,2.3,2.3,94,0.00,CLR,,0.00,0.0,WeatherDisplay:10.37,2013-10-02 09:02:00,
2013-10-02 05:07:00,61.4,59.7,29.96,WSW,240,2.3,2.3,94,0.00,CLR,,0.00,0.0,WeatherDisplay:10.37,2013-10-02 09:07:00,
2013-10-02 05:12:00,61.2,59.5,29.96,SW,219,3.5,3.5,94,0.00,CLR,,0.00,0.0,WeatherDisplay:10.37,2013-10-02 09:12:00,
2013-10-02 05:18:00,61.0,59.3,29.96,WSW,238,0.0,0.0,94,0.00,CLR,,0.00,0.0,WeatherDisplay:10.37,2013-10-02 09:18:00,
2013-10-02 05:23:00,60.8,59.1,29.96,WSW,238,2.3,2.3,94,0.00,CLR,,0.00,0.0,WeatherDisplay:10.37,2013-10-02 09:23:00,
2013-10-02 05:28:00,60.7,59.0,29.97,WSW,238,0.0,0.0,94,0.00,CLR,,0.00,0.0,WeatherDisplay:10.37,2013-10-02 09:28:00,
2013-10-02 05:33:00,60.5,58.8,29.97,WSW,238,1.2,1.2,94,0.00,CLR,,0.00,0.0,WeatherDisplay:10.37,2013-10-02 09:33:00,
2013-10-02 05:38:00,60.4,58.7,29.97,WSW,238,1.2,1.2,94,0.00,CLR,,0.00,0.0,WeatherDisplay:10.37,2013-10-02 09:38:00,
2013-10-02 05:43:00,60.2,58.8,29.97,WSW,238,1.2,0.0,95,0.00,CLR,,0.00,0.0,WeatherDisplay:10.37,2013-10-02 09:43:00,
2013-10-02 05:48:00,60.0,58.6,29.97,WSW,238,2.0,2.0,95,0.00,CLR,,0.00,0.0,WeatherDisplay:10.37,2013-10-02 09:48:00,
2013-10-02 05:53:00,60.0,58.6,29.97,WSW,238,1.2,1.2,95,0.00,CLR,,0.00,0.0,WeatherDisplay:10.37,2013-10-02 09:53:00,
2013-10-02 05:58:00,60.0,58.6,29.98,WSW,238,1.2,1.2,95,0.00,CLR,,0.00,0.0,WeatherDisplay:10.37,2013-10-02 09:58:00,
2013-10-02 06:03:00,59.8,58.4,29.98,WSW,238,2.3,2.3,95,0.00,CLR,,0.00,0.0,WeatherDisplay:10.37,2013-10-02 10:03:00,
2013-10-02 06:08:00,59.5,58.1,29.98,WSW,238,1.0,1.0,95,0.00,CLR,,0.00,0.0,WeatherDisplay:10.37,2013-10-02 10:08:00,
2013-10-02 06:13:00,59.3,57.9,29.98,WSW,238,0.0,0.0,95,0.00,CLR,,0.00,0.0,WeatherDisplay:10.37,2013-10-02 10:13:00,
2013-10-02 06:18:00,59.1,57.7,29.98,WSW,238,0.0,0.0,95,0.00,CLR,,0.00,0.0,WeatherDisplay:10.37,2013-10-02 10:18:00,
2013-10-02 06:23:00,58.9,57.5,29.98,WSW,238,1.2,1.2,95,0.00,CLR,,0.00,0.0,WeatherDisplay:10.37,2013-10-02 10:23:00,
2013-10-02 06:28:00,58.9,57.5,29.99,WSW,238,0.0,0.0,95,0.00,CLR,,0.00,0.0,WeatherDisplay:10.37,2013-10-02 10:28:00,
2013-10-02 06:33:00,58.8,57.4,29.98,WSW,238,2.3,2.3,95,0.00,CLR,,0.00,0.0,WeatherDisplay:10.37,2013-10-02 10:33:00,
2013-10-02 06:38:00,58.8,57.7,29.99,WSW,250,3.5,3.5,96,0.00,CLR,,0.00,0.0,WeatherDisplay:10.37,2013-10-02 10:38:00,
2013-10-02 06:43:00,58.6,57.5,29.99,West,266,2.3,2.3,96,0.00,CLR,,0.00,0.0,WeatherDisplay:10.37,2013-10-02 10:43:00,
2013-10-02 06:48:00,58.4,57.3,29.99,WSW,248,2.3,2.3,96,0.00,CLR,,0.00,0.0,WeatherDisplay:10.37,2013-10-02 10:48:00,
2013-10-02 06:53:00,58.4,57.3,29.99,WSW,254,2.3,2.3,96,0.00,CLR,,0.00,0.0,WeatherDisplay:10.37,2013-10-02 10:53:00,
2013-10-02 06:58:00,58.4,57.3,29.99,WSW,254,0.0,0.0,96,0.00,CLR,,0.00,0.0,WeatherDisplay:10.37,2013-10-02 10:58:00,
2013-10-02 07:03:00,58.2,57.1,29.99,WSW,254,0.0,0.0,96,0.00,CLR,,0.00,0.0,WeatherDisplay:10.37,2013-10-02 11:03:00,
2013-10-02 07:08:00,57.9,56.8,30.00,WSW,254,0.0,0.0,96,0.00,CLR,,0.00,0.0,WeatherDisplay:10.37,2013-10-02 11:08:00,
2013-10-02 07:13:00,57.6,56.2,30.00,WSW,254,0.0,0.0,95,0.00,CLR,,0.00,0.0,WeatherDisplay:10.37,2013-10-02 11:13:00,
2013-10-02 07:18:00,57.2,55.8,30.00,WSW,254,0.0,0.0,95,0.00,CLR,,0.00,0.0,WeatherDisplay:10.37,2013-10-02 11:18:00,
2013-10-02 07:23:00,56.8,55.4,30.00,WSW,254,0.0,0.0,95,0.00,CLR,,0.00,0.0,WeatherDisplay:10.37,2013-10-02 11:23:00,
2013-10-02 07:28:00,56.6,55.2,30.00,WSW,254,0.0,0.0,95,0.00,CLR,,0.00,0.0,WeatherDisplay:10.37,2013-10-02 11:28:00,
2013-10-02 07:33:00,56.4,55.0,30.00,WSW,257,3.5,3.5,95,0.00,CLR,,0.00,0.0,WeatherDisplay:10.37,2013-10-02 11:33:00,
2013-10-02 07:38:00,56.5,55.4,30.01,West,259,3.5,3.5,96,0.00,CLR,,0.00,5.0,WeatherDisplay:10.37,2013-10-02 11:38:00,
2013-10-02 07:43:00,56.4,55.3,30.00,West,263,2.3,2.3,96,0.00,CLR,,0.00,7.0,WeatherDisplay:10.37,2013-10-02 11:43:00,
2013-10-02 07:48:00,56.4,55.3,30.01,West,263,1.2,0.0,96,0.00,CLR,,0.00,9.0,WeatherDisplay:10.37,2013-10-02 11:48:00,
2013-10-02 07:53:00,56.3,55.2,30.01,West,263,1.2,0.0,96,0.00,CLR,,0.00,12.0,WeatherDisplay:10.37,2013-10-02 11:53:00,
2013-10-02 07:58:00,56.2,55.1,30.01,SW,235,2.3,2.3,96,0.00,CLR,,0.00,14.0,WeatherDisplay:10.37,2013-10-02 11:58:00,
2013-10-02 08:03:00,56.1,55.0,30.01,SW,235,1.2,1.2,96,0.00,CLR,,0.00,16.0,WeatherDisplay:10.37,2013-10-02 12:03:00,
2013-10-02 08:08:00,56.1,55.0,30.01,SW,235,0.0,0.1,96,0.00,CLR,,0.00,18.0,WeatherDisplay:10.37,2013-10-02 12:08:00,
2013-10-02 08:13:00,56.1,55.3,30.01,SW,235,1.2,1.2,97,0.00,CLR,,0.00,19.0,WeatherDisplay:10.37,2013-10-02 12:13:00,
2013-10-02 08:18:00,56.2,55.4,30.02,SW,235,0.0,0.0,97,0.00,CLR,,0.00,26.0,WeatherDisplay:10.37,2013-10-02 12:18:00,
2013-10-02 08:23:00,56.5,55.7,30.02,SW,235,0.0,0.0,97,0.00,CLR,,0.00,32.0,WeatherDisplay:10.37,2013-10-02 12:23:00,
2013-10-02 08:28:00,56.8,56.0,30.02,SW,235,1.2,1.2,97,0.00,CLR,,0.00,49.0,WeatherDisplay:10.37,2013-10-02 12:28:00,
2013-10-02 08:33:00,57.4,56.6,30.02,SW,235,0.0,0.0,97,0.00,CLR,,0.00,26.0,WeatherDisplay:10.37,2013-10-02 12:33:00,
2013-10-02 08:38:00,57.8,57.0,30.03,SW,235,1.2,0.0,97,0.00,CLR,,0.00,25.0,WeatherDisplay:10.37,2013-10-02 12:38:00,
2013-10-02 08:43:00,57.9,57.1,30.03,SW,235,0.0,0.0,97,0.00,CLR,,0.00,32.0,WeatherDisplay:10.37,2013-10-02 12:43:00,
2013-10-02 08:48:00,58.2,57.4,30.03,SW,235,0.0,0.1,97,0.00,CLR,,0.00,28.0,WeatherDisplay:10.37,2013-10-02 12:48:00,
2013-10-02 08:53:00,58.4,57.6,30.03,SW,235,0.0,0.0,97,0.00,CLR,,0.00,30.0,WeatherDisplay:10.37,2013-10-02 12:53:00,
2013-10-02 08:58:00,58.6,57.8,30.03,SW,235,2.0,2.0,97,0.00,CLR,,0.00,30.0,WeatherDisplay:10.37,2013-10-02 12:58:00,
2013-10-02 09:03:00,58.7,57.9,30.04,SW,235,1.2,1.2,97,0.00,OVC,,0.00,39.0,WeatherDisplay:10.37,2013-10-02 13:03:00,
2013-10-02 09:08:00,58.9,58.1,30.04,WNW,296,3.5,3.5,97,0.00,OVC,,0.00,33.0,WeatherDisplay:10.37,2013-10-02 13:08:00,
2013-10-02 09:13:00,59.2,58.3,30.04,WNW,283,4.6,4.6,97,0.00,OVC,,0.00,46.0,WeatherDisplay:10.37,2013-10-02 13:13:00,
2013-10-02 09:18:00,59.4,58.5,30.04,NNW,332,6.9,6.9,97,0.00,OVC,,0.00,54.0,WeatherDisplay:10.37,2013-10-02 13:18:00,
2013-10-02 09:23:00,59.8,58.4,30.05,NW,325,3.5,3.5,95,0.00,OVC,,0.00,165.0,WeatherDisplay:10.37,2013-10-02 13:23:00,
2013-10-02 09:28:00,60.4,58.1,30.05,NW,325,3.5,3.5,92,0.00,OVC,,0.00,253.0,WeatherDisplay:10.37,2013-10-02 13:28:00,
2013-10-02 09:33:00,61.1,58.1,30.05,NW,311,4.6,5.1,90,0.00,OVC,,0.00,267.0,WeatherDisplay:10.37,2013-10-02 13:33:00,
2013-10-02 09:38:00,61.8,57.2,30.05,WNW,286,5.8,5.8,85,0.00,OVC,,0.00,279.0,WeatherDisplay:10.37,2013-10-02 13:38:00,
2013-10-02 09:43:00,62.4,57.2,30.05,WNW,288,7.0,7.0,83,0.00,OVC,,0.00,297.0,WeatherDisplay:10.37,2013-10-02 13:43:00,
2013-10-02 09:48:00,63.1,56.1,30.05,NW,325,9.2,9.2,78,0.00,OVC,,0.00,311.0,WeatherDisplay:10.37,2013-10-02 13:48:00,
2013-10-02 09:53:00,63.5,56.9,30.05,NNW,348,4.6,4.6,79,0.00,OVC,,0.00,329.0,WeatherDisplay:10.37,2013-10-02 13:53:00,
2013-10-02 09:58:00,64.0,56.6,30.05,NNW,347,5.0,5.0,77,0.00,OVC,,0.00,343.0,WeatherDisplay:10.37,2013-10-02 13:58:00,
2013-10-02 10:03:00,64.3,56.2,30.06,NNW,344,5.8,5.8,75,0.00,OVC,,0.00,360.0,WeatherDisplay:10.37,2013-10-02 14:03:00,
2013-10-02 10:08:00,64.7,56.6,30.06,NNW,348,4.6,4.6,75,0.00,OVC,,0.00,374.0,WeatherDisplay:10.37,2013-10-02 14:08:00,
2013-10-02 10:13:00,64.9,55.3,30.06,WNW,299,6.9,6.9,71,0.00,OVC,,0.00,385.0,WeatherDisplay:10.37,2013-10-02 14:13:00,
2013-10-02 10:18:00,65.4,56.5,30.06,NNW,340,5.0,5.0,73,0.00,OVC,,0.00,397.0,WeatherDisplay:10.37,2013-10-02 14:18:00,
2013-10-02 10:23:00,65.7,55.6,30.06,NNE,13,3.5,3.8,70,0.00,OVC,,0.00,410.0,WeatherDisplay:10.37,2013-10-02 14:23:00,
2013-10-02 10:28:00,65.9,55.4,30.06,NW,314,3.5,3.5,69,0.00,OVC,,0.00,424.0,WeatherDisplay:10.37,2013-10-02 14:28:00,
2013-10-02 10:33:00,66.3,55.8,30.06,North,5,4.0,4.0,69,0.00,OVC,,0.00,438.0,WeatherDisplay:10.37,2013-10-02 14:33:00,
2013-10-02 10:38:00,66.6,54.9,30.06,WNW,301,3.5,3.5,66,0.00,OVC,,0.00,452.0,WeatherDisplay:10.37,2013-10-02 14:38:00,
2013-10-02 10:43:00,66.7,55.0,30.07,NW,317,4.0,4.0,66,0.00,OVC,,0.00,464.0,WeatherDisplay:10.37,2013-10-02 14:43:00,
2013-10-02 10:48:00,67.1,54.9,30.07,WSW,254,3.5,3.5,65,0.00,OVC,,0.00,476.0,WeatherDisplay:10.37,2013-10-02 14:48:00,
2013-10-02 10:53:00,67.6,54.6,30.07,North,355,4.6,4.6,63,0.00,OVC,,0.00,487.0,WeatherDisplay:10.37,2013-10-02 14:53:00,
2013-10-02 10:58:00,67.8,55.2,30.07,WNW,300,4.6,4.6,64,0.00,OVC,,0.00,501.0,WeatherDisplay:10.37,2013-10-02 14:58:00,
2013-10-02 11:03:00,68.2,54.7,30.06,WNW,299,3.5,3.5,62,0.00,OVC,,0.00,512.0,WeatherDisplay:10.37,2013-10-02 15:03:00,
2013-10-02 11:08:00,68.5,52.2,30.06,NNW,339,5.0,5.0,56,0.00,OVC,,0.00,526.0,WeatherDisplay:10.37,2013-10-02 15:08:00,
2013-10-02 11:13:00,68.6,51.8,30.06,NNE,15,2.3,2.3,55,0.00,OVC,,0.00,536.0,WeatherDisplay:10.37,2013-10-02 15:13:00,
2013-10-02 11:18:00,69.0,53.1,30.06,WNW,299,4.0,4.0,57,0.00,OVC,,0.00,548.0,WeatherDisplay:10.37,2013-10-02 15:18:00,
2013-10-02 11:23:00,69.4,53.0,30.06,North,360,6.0,6.0,56,0.00,OVC,,0.00,557.0,WeatherDisplay:10.37,2013-10-02 15:23:00,
2013-10-02 11:28:00,69.6,51.7,30.06,NNE,21,2.3,2.3,53,0.00,OVC,,0.00,568.0,WeatherDisplay:10.37,2013-10-02 15:28:00,
2013-10-02 11:33:00,69.7,51.8,30.06,NNE,30,4.6,4.8,53,0.00,OVC,,0.00,578.0,WeatherDisplay:10.37,2013-10-02 15:33:00,
2013-10-02 11:38:00,70.1,53.7,30.06,NNE,26,1.2,0.0,56,0.00,OVC,,0.00,589.0,WeatherDisplay:10.37,2013-10-02 15:38:00,
2013-10-02 11:43:00,70.7,53.7,30.06,NNW,340,2.3,2.3,55,0.00,OVC,,0.00,594.0,WeatherDisplay:10.37,2013-10-02 15:43:00,
2013-10-02 11:48:00,71.2,51.1,30.06,NNW,328,4.0,4.0,49,0.00,OVC,,0.00,603.0,WeatherDisplay:10.37,2013-10-02 15:48:00,
2013-10-02 11:53:00,71.0,50.3,30.06,NNE,30,1.2,1.2,48,0.00,OVC,,0.00,613.0,WeatherDisplay:10.37,2013-10-02 15:53:00,
2013-10-02 11:58:00,71.2,51.1,30.06,North,355,4.6,4.6,49,0.00,OVC,,0.00,622.0,WeatherDisplay:10.37,2013-10-02 15:58:00,
2013-10-02 12:03:00,71.3,49.4,30.06,North,355,4.6,4.6,46,0.00,OVC,,0.00,629.0,WeatherDisplay:10.37,2013-10-02 16:03:00,
2013-10-02 12:08:00,71.3,51.1,30.06,North,5,5.8,5.8,49,0.00,OVC,,0.00,636.0,WeatherDisplay:10.37,2013-10-02 16:08:00,
2013-10-02 12:13:00,71.3,50.6,30.06,NNE,15,2.3,2.3,48,0.00,OVC,,0.00,643.0,WeatherDisplay:10.37,2013-10-02 16:13:00,
2013-10-02 12:18:00,71.6,50.3,30.06,NNE,19,1.2,1.2,47,0.00,OVC,,0.00,649.0,WeatherDisplay:10.37,2013-10-02 16:18:00,
2013-10-02 12:23:00,72.1,49.6,30.06,NNE,21,5.8,5.8,45,0.00,OVC,,0.00,654.0,WeatherDisplay:10.37,2013-10-02 16:23:00,
2013-10-02 12:28:00,72.1,50.8,30.06,North,360,3.5,3.5,47,0.00,OVC,,0.00,661.0,WeatherDisplay:10.37,2013-10-02 16:28:00,
2013-10-02 12:33:00,72.6,48.8,30.06,North,360,1.2,1.2,43,0.00,OVC,,0.00,675.0,WeatherDisplay:10.37,2013-10-02 16:33:00,
2013-10-02 12:38:00,72.8,45.7,30.06,West,281,5.8,5.8,38,0.00,CLR,,0.00,675.0,WeatherDisplay:10.37,2013-10-02 16:38:00,
2013-10-02 12:43:00,73.1,46.7,30.06,North,5,2.3,2.3,39,0.00,CLR,,0.00,682.0,WeatherDisplay:10.37,2013-10-02 16:43:00,
2013-10-02 12:48:00,73.4,47.6,30.06,WNW,297,5.8,5.8,40,0.00,CLR,,0.00,684.0,WeatherDisplay:10.37,2013-10-02 16:48:00,
2013-10-02 12:53:00,73.4,45.5,30.06,WNW,298,0.0,0.0,37,0.00,CLR,,0.00,686.0,WeatherDisplay:10.37,2013-10-02 16:53:00,
2013-10-02 12:58:00,73.7,49.8,30.06,WNW,294,3.5,3.5,43,0.00,CLR,,0.00,689.0,WeatherDisplay:10.37,2013-10-02 16:58:00,
2013-10-02 13:03:00,73.9,48.7,30.06,NW,308,5.8,5.8,41,0.00,CLR,,0.00,693.0,WeatherDisplay:10.37,2013-10-02 17:03:00,
2013-10-02 13:08:00,74.0,46.8,30.06,NW,324,3.5,3.5,38,0.00,CLR,,0.00,698.0,WeatherDisplay:10.37,2013-10-02 17:08:00,
2013-10-02 13:13:00,74.2,46.2,30.06,WSW,256,8.1,8.1,37,0.00,CLR,,0.00,701.0,WeatherDisplay:10.37,2013-10-02 17:13:00,
2013-10-02 13:18:00,74.3,43.3,30.06,NNW,338,8.1,8.1,33,0.00,CLR,,0.00,705.0,WeatherDisplay:10.37,2013-10-02 17:18:00,
2013-10-02 13:23:00,74.6,44.4,30.06,WNW,291,4.0,4.0,34,0.00,CLR,,0.00,707.0,WeatherDisplay:10.37,2013-10-02 17:23:00,
2013-10-02 13:28:00,74.7,43.7,30.06,NNW,338,5.0,5.0,33,0.00,CLR,,0.00,705.0,WeatherDisplay:10.37,2013-10-02 17:28:00,
2013-10-02 13:33:00,74.4,44.2,30.05,West,264,3.0,3.0,34,0.00,CLR,,0.00,705.0,WeatherDisplay:10.37,2013-10-02 17:33:00,
2013-10-02 13:38:00,74.9,43.8,30.05,West,280,6.9,6.9,33,0.00,CLR,,0.00,707.0,WeatherDisplay:10.37,2013-10-02 17:38:00,
2013-10-02 13:43:00,74.8,43.8,30.05,NNW,341,3.0,3.0,33,0.00,CLR,,0.00,705.0,WeatherDisplay:10.37,2013-10-02 17:43:00,
2013-10-02 13:48:00,75.0,43.1,30.05,WSW,248,8.1,8.1,32,0.00,CLR,,0.00,707.0,WeatherDisplay:10.37,2013-10-02 17:48:00,
2013-10-02 13:53:00,75.0,44.7,30.05,West,265,9.2,9.2,34,0.00,CLR,,0.00,707.0,WeatherDisplay:10.37,2013-10-02 17:53:00,
2013-10-02 13:58:00,75.3,43.4,30.05,WSW,248,10.0,10.0,32,0.00,CLR,,0.00,701.0,WeatherDisplay:10.37,2013-10-02 17:58:00,
2013-10-02 14:03:00,75.6,43.7,30.05,NNW,331,9.2,9.2,32,0.00,CLR,,0.00,701.0,WeatherDisplay:10.37,2013-10-02 18:03:00,
2013-10-02 14:08:00,75.7,42.1,30.05,SW,232,5.0,5.0,30,0.00,CLR,,0.00,696.0,WeatherDisplay:10.37,2013-10-02 18:08:00,
2013-10-02 14:13:00,75.9,43.1,30.05,West,279,3.5,3.5,31,0.00,CLR,,0.00,693.0,WeatherDisplay:10.37,2013-10-02 18:13:00,
2013-10-02 14:18:00,75.9,43.9,30.05,North,349,7.0,7.0,32,0.00,CLR,,0.00,693.0,WeatherDisplay:10.37,2013-10-02 18:18:00,
2013-10-02 14:23:00,75.7,44.5,30.04,North,350,3.5,3.5,33,0.00,CLR,,0.00,689.0,WeatherDisplay:10.37,2013-10-02 18:23:00,
2013-10-02 14:28:00,75.9,45.5,30.04,North,355,6.0,6.0,34,0.00,CLR,,0.00,686.0,WeatherDisplay:10.37,2013-10-02 18:28:00,
2013-10-02 14:33:00,75.6,44.5,30.04,SSW,210,3.5,3.5,33,0.00,CLR,,0.00,680.0,WeatherDisplay:10.37,2013-10-02 18:33:00,
2013-10-02 14:38:00,76.0,45.6,30.04,NW,304,6.0,6.4,34,0.00,CLR,,0.00,677.0,WeatherDisplay:10.37,2013-10-02 18:38:00,
2013-10-02 14:43:00,76.3,45.9,30.04,West,271,3.5,3.5,34,0.00,CLR,,0.00,671.0,WeatherDisplay:10.37,2013-10-02 18:43:00,
2013-10-02 14:48:00,76.6,43.7,30.03,SSW,196,3.5,3.5,31,0.00,CLR,,0.00,670.0,WeatherDisplay:10.37,2013-10-02 18:48:00,
2013-10-02 14:53:00,76.6,43.7,30.03,West,273,9.2,9.2,31,0.00,CLR,,0.00,664.0,WeatherDisplay:10.37,2013-10-02 18:53:00,
2013-10-02 14:58:00,76.8,43.0,30.03,WSW,255,10.4,10.4,30,0.00,CLR,,0.00,657.0,WeatherDisplay:10.37,2013-10-02 18:58:00,
2013-10-02 15:03:00,76.9,43.1,30.03,SW,219,11.0,11.0,30,0.00,CLR,,0.00,654.0,WeatherDisplay:10.37,2013-10-02 19:03:00,
2013-10-02 15:08:00,77.1,40.5,30.03,SW,234,6.9,6.9,27,0.00,CLR,,0.00,645.0,WeatherDisplay:10.37,2013-10-02 19:08:00,
2013-10-02 15:13:00,77.0,42.3,30.03,NNW,329,6.0,6.0,29,0.00,CLR,,0.00,638.0,WeatherDisplay:10.37,2013-10-02 19:13:00,
2013-10-02 15:18:00,76.9,41.3,30.03,SSW,192,4.0,4.0,28,0.00,CLR,,0.00,631.0,WeatherDisplay:10.37,2013-10-02 19:18:00,
2013-10-02 15:23:00,77.0,42.3,30.03,West,263,5.8,5.8,29,0.00,CLR,,0.00,624.0,WeatherDisplay:10.37,2013-10-02 19:23:00,
2013-10-02 15:28:00,77.0,42.3,30.03,SW,219,6.9,6.9,29,0.00,CLR,,0.00,617.0,WeatherDisplay:10.37,2013-10-02 19:28:00,
2013-10-02 15:33:00,77.3,41.6,30.03,SW,236,6.0,6.0,28,0.00,CLR,,0.00,608.0,WeatherDisplay:10.37,2013-10-02 19:33:00,
2013-10-02 15:38:00,77.5,40.9,30.03,WSW,256,9.2,9.2,27,0.00,CLR,,0.00,601.0,WeatherDisplay:10.37,2013-10-02 19:38:00,
2013-10-02 15:43:00,77.3,42.6,30.03,WNW,298,5.8,5.8,29,0.00,CLR,,0.00,592.0,WeatherDisplay:10.37,2013-10-02 19:43:00,
2013-10-02 15:48:00,77.1,37.5,30.03,West,272,5.8,5.8,24,0.00,CLR,,0.00,584.0,WeatherDisplay:10.37,2013-10-02 19:48:00,
2013-10-02 15:53:00,77.2,39.6,30.03,West,259,2.3,2.3,26,0.00,CLR,,0.00,573.0,WeatherDisplay:10.37,2013-10-02 19:53:00,
2013-10-02 15:58:00,77.1,41.5,30.03,NW,311,5.8,5.8,28,0.00,CLR,,0.00,564.0,WeatherDisplay:10.37,2013-10-02 19:58:00,
2013-10-02 16:03:00,77.2,41.6,30.03,West,272,9.2,9.2,28,0.00,CLR,,0.00,554.0,WeatherDisplay:10.37,2013-10-02 20:03:00,
2013-10-02 16:08:00,77.3,40.7,30.02,NW,306,1.2,1.2,27,0.00,CLR,,0.00,543.0,WeatherDisplay:10.37,2013-10-02 20:08:00,
2013-10-02 16:13:00,77.3,40.7,30.02,West,259,4.6,4.6,27,0.00,CLR,,0.00,529.0,WeatherDisplay:10.37,2013-10-02 20:13:00,
2013-10-02 16:18:00,77.3,41.6,30.02,West,265,3.5,3.5,28,0.00,CLR,,0.00,519.0,WeatherDisplay:10.37,2013-10-02 20:18:00,
2013-10-02 16:23:00,77.5,39.9,30.02,West,279,0.0,0.0,26,0.00,CLR,,0.00,508.0,WeatherDisplay:10.37,2013-10-02 20:23:00,
2013-10-02 16:28:00,77.9,40.2,30.02,NW,312,5.8,5.8,26,0.00,FEW,,0.00,496.0,WeatherDisplay:10.37,2013-10-02 20:28:00,
2013-10-02 16:33:00,77.9,42.2,30.02,NW,307,3.5,3.5,28,0.00,FEW,,0.00,485.0,WeatherDisplay:10.37,2013-10-02 20:33:00,
2013-10-02 16:38:00,78.1,40.4,30.02,West,259,3.5,3.5,26,0.00,FEW,,0.00,475.0,WeatherDisplay:10.37,2013-10-02 20:38:00,
2013-10-02 16:43:00,78.3,41.6,30.02,NW,309,3.5,3.6,27,0.00,FEW,,0.00,462.0,WeatherDisplay:10.37,2013-10-02 20:43:00,
2013-10-02 16:48:00,78.2,40.5,30.02,WSW,248,5.8,5.8,26,0.00,SCT,,0.00,432.0,WeatherDisplay:10.37,2013-10-02 20:48:00,
2013-10-02 16:53:00,78.2,42.4,30.02,SSW,207,6.9,6.9,28,0.00,SCT,,0.00,436.0,WeatherDisplay:10.37,2013-10-02 20:53:00,
2013-10-02 16:58:00,78.0,39.3,30.02,NW,321,6.9,6.9,25,0.00,SCT,,0.00,420.0,WeatherDisplay:10.37,2013-10-02 20:58:00,
2013-10-02 17:03:00,77.8,38.1,30.02,NW,320,6.9,6.9,24,0.00,SCT,,0.00,408.0,WeatherDisplay:10.37,2013-10-02 21:03:00,
2013-10-02 17:08:00,77.5,39.9,30.02,NW,319,5.8,5.8,26,0.00,SCT,,0.00,383.0,WeatherDisplay:10.37,2013-10-02 21:08:00,
2013-10-02 17:13:00,77.4,38.8,30.02,West,261,4.6,4.6,25,0.00,SCT,,0.00,380.0,WeatherDisplay:10.37,2013-10-02 21:13:00,
2013-10-02 17:18:00,77.5,38.9,30.02,West,260,3.5,3.5,25,0.00,SCT,,0.00,367.0,WeatherDisplay:10.37,2013-10-02 21:18:00,
2013-10-02 17:23:00,77.6,39.0,30.02,West,260,4.6,4.6,25,0.00,SCT,,0.00,352.0,WeatherDisplay:10.37,2013-10-02 21:23:00,
2013-10-02 17:28:00,77.7,40.1,30.02,WNW,282,3.5,3.5,26,0.00,BKN,,0.00,334.0,WeatherDisplay:10.37,2013-10-02 21:28:00,
2013-10-02 17:33:00,77.8,39.1,30.02,WNW,282,3.5,3.5,25,0.00,BKN,,0.00,318.0,WeatherDisplay:10.37,2013-10-02 21:33:00,
2013-10-02 17:38:00,77.8,41.1,30.02,NW,312,3.5,3.5,27,0.00,BKN,,0.00,301.0,WeatherDisplay:10.37,2013-10-02 21:38:00,
2013-10-02 17:43:00,77.6,40.0,30.02,NW,319,4.0,4.0,26,0.00,BKN,,0.00,279.0,WeatherDisplay:10.37,2013-10-02 21:43:00,
2013-10-02 17:48:00,77.6,41.0,30.02,WNW,288,3.5,3.5,27,0.00,BKN,,0.00,269.0,WeatherDisplay:10.37,2013-10-02 21:48:00,
2013-10-02 17:53:00,77.5,39.9,30.02,West,277,3.5,3.5,26,0.00,BKN,,0.00,255.0,WeatherDisplay:10.37,2013-10-02 21:53:00,
2013-10-02 17:58:00,77.4,40.8,30.02,WNW,285,3.5,3.5,27,0.00,BKN,,0.00,239.0,WeatherDisplay:10.37,2013-10-02 21:58:00,
2013-10-02 18:03:00,77.3,41.6,30.02,West,281,3.5,3.5,28,0.00,BKN,,0.00,220.0,WeatherDisplay:10.37,2013-10-02 22:03:00,
2013-10-02 18:08:00,77.3,40.7,30.02,West,281,1.2,0.0,27,0.00,BKN,,0.00,197.0,WeatherDisplay:10.37,2013-10-02 22:08:00,
2013-10-02 18:13:00,77.4,39.8,30.02,NNW,329,4.6,4.6,26,0.00,BKN,,0.00,171.0,WeatherDisplay:10.37,2013-10-02 22:13:00,
2013-10-02 18:18:00,77.3,41.6,30.02,NW,311,3.0,3.0,28,0.00,BKN,,0.00,109.0,WeatherDisplay:10.37,2013-10-02 22:18:00,
2013-10-02 18:23:00,76.9,41.3,30.02,WNW,302,1.2,1.2,28,0.00,BKN,,0.00,72.0,WeatherDisplay:10.37,2013-10-02 22:23:00,
2013-10-02 18:28:00,76.2,40.7,30.02,WNW,302,2.3,2.3,28,0.00,BKN,,0.00,70.0,WeatherDisplay:10.37,2013-10-02 22:28:00,
2013-10-02 18:33:00,75.9,41.3,30.02,WNW,302,1.2,0.0,29,0.00,CLR,,0.00,26.0,WeatherDisplay:10.37,2013-10-02 22:33:00,
2013-10-02 18:38:00,75.6,42.8,30.02,WNW,302,0.0,0.0,31,0.00,BKN,,0.00,67.0,WeatherDisplay:10.37,2013-10-02 22:38:00,
2013-10-02 18:43:00,75.3,45.0,30.02,WNW,302,1.2,1.2,34,0.00,CLR,,0.00,35.0,WeatherDisplay:10.37,2013-10-02 22:43:00,
2013-10-02 18:48:00,74.5,45.0,30.02,WNW,302,0.0,0.0,35,0.00,CLR,,0.00,26.0,WeatherDisplay:10.37,2013-10-02 22:48:00,
2013-10-02 18:53:00,73.5,47.0,30.02,WNW,302,0.0,0.0,39,0.00,CLR,,0.00,14.0,WeatherDisplay:10.37,2013-10-02 22:53:00,
2013-10-02 18:58:00,72.7,48.9,30.02,WNW,302,0.0,0.0,43,0.00,CLR,,0.00,12.0,WeatherDisplay:10.37,2013-10-02 22:58:00,
2013-10-02 19:03:00,71.9,48.2,30.02,WNW,302,0.0,0.0,43,0.00,CLR,,0.00,11.0,WeatherDisplay:10.37,2013-10-02 23:03:00,
2013-10-02 19:08:00,71.1,47.5,30.02,WNW,302,0.0,0.0,43,0.00,CLR,,0.00,7.0,WeatherDisplay:10.37,2013-10-02 23:08:00,
2013-10-02 19:13:00,69.9,45.8,30.02,WNW,302,0.0,0.0,42,0.00,CLR,,0.00,5.0,WeatherDisplay:10.37,2013-10-02 23:13:00,
2013-10-02 19:18:00,68.7,45.3,30.02,WNW,302,0.0,0.0,43,0.00,CLR,,0.00,0.0,WeatherDisplay:10.37,2013-10-02 23:18:00,
2013-10-02 19:23:00,67.6,44.9,30.02,WNW,302,0.0,0.0,44,0.00,CLR,,0.00,0.0,WeatherDisplay:10.37,2013-10-02 23:23:00,
2013-10-02 19:28:00,66.5,47.8,30.02,WNW,302,0.0,0.0,51,0.00,CLR,,0.00,0.0,WeatherDisplay:10.37,2013-10-02 23:28:00,
2013-10-02 19:33:00,65.4,48.3,30.02,WNW,302,0.0,0.0,54,0.00,CLR,,0.00,0.0,WeatherDisplay:10.37,2013-10-02 23:33:00,
2013-10-02 19:38:00,64.2,46.7,30.02,WNW,302,0.0,0.0,53,0.00,CLR,,0.00,0.0,WeatherDisplay:10.37,2013-10-02 23:38:00,
2013-10-02 19:43:00,63.2,46.8,30.02,WNW,302,0.0,0.0,55,0.00,CLR,,0.00,0.0,WeatherDisplay:10.37,2013-10-02 23:43:00,
2013-10-02 19:48:00,62.2,47.7,30.02,North,5,0.0,0.0,59,0.00,CLR,,0.00,0.0,WeatherDisplay:10.37,2013-10-02 23:48:00,
2013-10-02 19:50:00,62.0,48.0,30.02,North,5,0.0,0.0,60,0.00,CLR,,0.00,0.0,WeatherDisplay:10.37,2013-10-02 23:50:00,
2013-10-02 19:55:00,61.2,47.6,30.02,North,5,0.0,0.0,61,0.00,CLR,,0.00,0.0,WeatherDisplay:10.37,2013-10-02 23:55:00,
2013-10-02 20:00:00,60.7,48.0,30.02,North,5,0.0,0.0,63,0.00,CLR,,0.00,0.0,WeatherDisplay:10.37,2013-10-03 00:00:00,
2013-10-02 20:05:00,60.0,47.8,30.02,North,5,0.0,0.0,64,0.00,CLR,,0.00,0.0,WeatherDisplay:10.37,2013-10-03 00:05:00,
2013-10-02 20:10:00,59.4,47.2,30.02,North,5,0.0,0.0,64,0.00,CLR,,0.00,0.0,WeatherDisplay:10.37,2013-10-03 00:10:00,
2013-10-02 20:15:00,58.9,47.2,30.03,North,5,0.0,0.0,65,0.00,CLR,,0.00,0.0,WeatherDisplay:10.37,2013-10-03 00:15:00,
2013-10-02 20:20:00,58.4,47.5,30.02,North,5,0.0,0.0,67,0.00,CLR,,0.00,0.0,WeatherDisplay:10.37,2013-10-03 00:20:00,
2013-10-02 20:25:00,58.0,48.3,30.03,North,5,0.0,0.0,70,0.00,CLR,,0.00,0.0,WeatherDisplay:10.37,2013-10-03 00:25:00,
2013-10-02 20:30:00,57.5,48.5,30.03,North,5,0.0,0.0,72,0.00,CLR,,0.00,0.0,WeatherDisplay:10.37,2013-10-03 00:30:00,
2013-10-02 20:35:00,57.0,48.4,30.03,North,5,0.0,0.0,73,0.00,CLR,,0.00,0.0,WeatherDisplay:10.37,2013-10-03 00:35:00,
2013-10-02 20:40:00,56.6,48.4,30.03,North,5,0.0,0.0,74,0.00,CLR,,0.00,0.0,WeatherDisplay:10.37,2013-10-03 00:40:00,
2013-10-02 20:45:00,56.1,47.9,30.03,North,5,0.0,0.0,74,0.00,CLR,,0.00,0.0,WeatherDisplay:10.37,2013-10-03 00:45:00,
2013-10-02 20:50:00,55.8,47.6,30.03,North,5,0.0,0.0,74,0.00,CLR,,0.00,0.0,WeatherDisplay:10.37,2013-10-03 00:50:00,
2013-10-02 20:55:00,55.4,47.6,30.03,North,5,0.0,0.0,75,0.00,CLR,,0.00,0.0,WeatherDisplay:10.37,2013-10-03 00:55:00,
2013-10-02 21:00:00,55.1,47.7,30.03,North,5,0.0,0.0,76,0.00,CLR,,0.00,0.0,WeatherDisplay:10.37,2013-10-03 01:00:00,
2013-10-02 21:05:00,54.9,47.8,30.03,North,5,0.0,0.0,77,0.00,CLR,,0.00,0.0,WeatherDisplay:10.37,2013-10-03 01:05:00,
2013-10-02 21:10:00,54.8,47.7,30.04,North,5,0.0,0.0,77,0.00,CLR,,0.00,0.0,WeatherDisplay:10.37,2013-10-03 01:10:00,
2013-10-02 21:15:00,54.6,47.9,30.04,North,5,0.0,0.0,78,0.00,CLR,,0.00,0.0,WeatherDisplay:10.37,2013-10-03 01:15:00,
2013-10-02 21:20:00,54.6,48.2,30.04,North,5,0.0,0.0,79,0.00,CLR,,0.00,0.0,WeatherDisplay:10.37,2013-10-03 01:20:00,
2013-10-02 21:25:00,54.3,47.9,30.04,North,5,0.0,0.0,79,0.00,CLR,,0.00,0.0,WeatherDisplay:10.37,2013-10-03 01:25:00,
2013-10-02 21:30:00,54.1,48.1,30.03,North,5,0.0,0.0,80,0.00,CLR,,0.00,0.0,WeatherDisplay:10.37,2013-10-03 01:30:00,
2013-10-02 21:35:00,53.8,47.8,30.03,North,5,0.0,0.0,80,0.00,CLR,,0.00,0.0,WeatherDisplay:10.37,2013-10-03 01:35:00,
2013-10-02 21:40:00,53.5,47.8,30.03,North,5,0.0,0.0,81,0.00,CLR,,0.00,0.0,WeatherDisplay:10.37,2013-10-03 01:40:00,
2013-10-02 21:45:00,53.2,47.8,30.03,North,5,0.0,0.0,82,0.00,CLR,,0.00,0.0,WeatherDisplay:10.37,2013-10-03 01:45:00,
2013-10-02 21:50:00,52.9,47.9,30.03,North,5,0.0,0.0,83,0.00,CLR,,0.00,0.0,WeatherDisplay:10.37,2013-10-03 01:50:00,
2013-10-02 21:55:00,52.6,47.9,30.03,North,5,0.0,0.0,84,0.00,CLR,,0.00,0.0,WeatherDisplay:10.37,2013-10-03 01:55:00,
2013-10-02 22:00:00,52.4,47.7,30.03,North,5,0.0,0.0,84,0.00,CLR,,0.00,0.0,WeatherDisplay:10.37,2013-10-03 02:00:00,
2013-10-02 22:05:00,52.3,47.9,30.03,North,5,0.0,0.0,85,0.00,CLR,,0.00,0.0,WeatherDisplay:10.37,2013-10-03 02:05:00,
2013-10-02 22:06:00,52.3,47.9,30.03,North,5,0.0,0.0,85,0.00,CLR,,0.00,0.0,WeatherDisplay:10.37,2013-10-03 02:06:00,
2013-10-02 22:11:00,52.2,48.1,30.03,North,5,0.0,0.0,86,0.00,CLR,,0.00,0.0,WeatherDisplay:10.37,2013-10-03 02:11:00,
2013-10-02 22:16:00,52.0,47.9,30.04,North,5,0.0,0.0,86,0.00,CLR,,0.00,0.0,WeatherDisplay:10.37,2013-10-03 02:16:00,
2013-10-02 22:21:00,51.8,47.7,30.03,North,5,0.0,0.0,86,0.00,CLR,,0.00,0.0,WeatherDisplay:10.37,2013-10-03 02:21:00,
2013-10-02 22:26:00,51.6,47.9,30.04,North,5,0.0,0.0,87,0.00,CLR,,0.00,0.0,WeatherDisplay:10.37,2013-10-03 02:26:00,
2013-10-02 22:31:00,51.3,47.6,30.03,North,5,0.0,0.0,87,0.00,CLR,,0.00,0.0,WeatherDisplay:10.37,2013-10-03 02:31:00,
2013-10-02 22:36:00,51.1,47.4,30.04,North,5,0.0,0.0,87,0.00,CLR,,0.00,0.0,WeatherDisplay:10.37,2013-10-03 02:36:00,
2013-10-02 22:41:00,50.9,47.5,30.04,North,5,0.0,0.0,88,0.00,CLR,,0.00,0.0,WeatherDisplay:10.37,2013-10-03 02:41:00,
2013-10-02 22:46:00,50.7,47.6,30.04,North,5,0.0,0.0,89,0.00,CLR,,0.00,0.0,WeatherDisplay:10.37,2013-10-03 02:46:00,
2013-10-02 22:51:00,50.6,47.5,30.04,North,5,0.0,0.0,89,0.00,CLR,,0.00,0.0,WeatherDisplay:10.37,2013-10-03 02:51:00,
2013-10-02 22:56:00,50.5,47.4,30.04,North,5,0.0,0.0,89,0.00,CLR,,0.00,0.0,WeatherDisplay:10.37,2013-10-03 02:56:00,
2013-10-02 23:01:00,50.5,47.4,30.04,North,5,0.0,0.0,89,0.00,CLR,,0.00,0.0,WeatherDisplay:10.37,2013-10-03 03:01:00,
2013-10-02 23:06:00,50.5,47.4,30.04,North,5,0.0,0.0,89,0.00,CLR,,0.00,0.0,WeatherDisplay:10.37,2013-10-03 03:06:00,
2013-10-02 23:11:00,50.4,47.3,30.04,North,5,0.0,0.0,89,0.00,CLR,,0.00,0.0,WeatherDisplay:10.37,2013-10-03 03:11:00,
2013-10-02 23:16:00,50.3,47.2,30.04,North,5,0.0,0.0,89,0.00,CLR,,0.00,0.0,WeatherDisplay:10.37,2013-10-03 03:16:00,
2013-10-02 23:21:00,50.2,47.1,30.04,North,5,0.0,0.0,89,0.00,CLR,,0.00,0.0,WeatherDisplay:10.37,2013-10-03 03:21:00,
2013-10-02 23:26:00,50.1,47.3,30.04,North,5,0.0,0.0,90,0.00,CLR,,0.00,0.0,WeatherDisplay:10.37,2013-10-03 03:26:00,
2013-10-02 23:31:00,49.9,47.1,30.05,North,5,0.0,0.0,90,0.00,CLR,,0.00,0.0,WeatherDisplay:10.37,2013-10-03 03:31:00,
2013-10-02 23:36:00,49.8,47.0,30.05,North,5,0.0,0.0,90,0.00,CLR,,0.00,0.0,WeatherDisplay:10.37,2013-10-03 03:36:00,
2013-10-02 23:41:00,49.7,47.2,30.04,North,5,0.0,0.0,91,0.00,CLR,,0.00,0.0,WeatherDisplay:10.37,2013-10-03 03:41:00,
2013-10-02 23:46:00,49.6,47.1,30.05,North,5,0.0,0.0,91,0.00,CLR,,0.00,0.0,WeatherDisplay:10.37,2013-10-03 03:46:00,
2013-10-02 23:51:00,49.5,47.0,30.05,North,5,0.0,0.0,91,0.00,CLR,,0.00,0.0,WeatherDisplay:10.37,2013-10-03 03:51:00,
2013-10-02 23:56:00,49.4,46.9,30.05,North,5,0.0,0.0,91,0.00,CLR,,0.00,0.0,WeatherDisplay:10.37,2013-10-03 03:56:00,